When you browse on this site, cookies collect data to enhance your experience and personalize the content and advertising you see.
Visit our Privacy Policy to learn more. By continuing to use the site, you agree to this use of cookies and data.
  • In Hungary
  • List of Countries
  • For 7 days
  • Water Temperature
  • Satellite Maps
  • Weather Map
  • News
  • Weather Widgets
  • user-avatar
    Login

    Hourly Weather Camas

    Today, 10 December, Monday

    Time Temperature Precipitation Wind Pressure Humidity
    00:00 +16°C° 0 mm 3 mps 767 mmHg 54%
    01:00 +14°C° 0 mm 3 mps 767 mmHg 54%
    02:00 +14°C° 0 mm 3 mps 766 mmHg 54%
    03:00 +14°C° 0 mm 3 mps 766 mmHg 54%
    04:00 +14°C° 0 mm 3 mps 766 mmHg 54%
    05:00 +14°C° 0 mm 3 mps 766 mmHg 54%
    06:00 +13°C° 0 mm 3 mps 766 mmHg 55%
    07:00 +14°C° 0 mm 3 mps 766 mmHg 54%
    08:00 +16°C° 0 mm 3 mps 766 mmHg 52%
    09:00 +16°C° 0 mm 3 mps 766 mmHg 50%
    10:00 +18°C° 0 mm 3 mps 766 mmHg 45%
    11:00 +20°C° 0 mm 3 mps 765 mmHg 41%
    12:00 +22°C° 0 mm 4 mps 766 mmHg 36%
    13:00 +22°C° 0 mm 3 mps 765 mmHg 36%
    14:00 +24°C° 0 mm 2 mps 765 mmHg 36%
    15:00 +24°C° 0 mm 2 mps 764 mmHg 37%
    16:00 +21°C° 0 mm 2 mps 764 mmHg 41%
    17:00 +21°C° 0 mm 1 mps 764 mmHg 45%
    18:00 +19°C° 0 mm 1 mps 764 mmHg 49%
    19:00 +18°C° 0 mm 1 mps 764 mmHg 49%
    20:00 +18°C° 0 mm 1 mps 764 mmHg 50%
    21:00 +16°C° 0 mm 1 mps 764 mmHg 51%
    22:00 +16°C° 0 mm 1 mps 764 mmHg 52%
    23:00 +15°C° 0 mm 1 mps 764 mmHg 53%

    Tomorrow, 11 December, Tuesday

    Time Temperature Precipitation Wind Pressure Humidity
    00:00 +15°C° 0 mm 1 mps 764 mmHg 54%
    01:00 +15°C° 0 mm 1 mps 764 mmHg 56%
    02:00 +14°C° 0 mm 1 mps 764 mmHg 57%
    03:00 +14°C° 0 mm 1 mps 764 mmHg 59%
    04:00 +14°C° 0 mm 1 mps 764 mmHg 61%
    05:00 +13°C° 0 mm 1 mps 764 mmHg 63%
    06:00 +13°C° 0 mm 1 mps 763 mmHg 65%
    07:00 +14°C° 0 mm 1 mps 764 mmHg 65%
    08:00 +14°C° 0 mm 1 mps 764 mmHg 65%
    09:00 +15°C° 0 mm 1 mps 764 mmHg 65%
    10:00 +16°C° 0 mm 1 mps 764 mmHg 65%
    11:00 +17°C° 0 mm 2 mps 764 mmHg 64%
    12:00 +18°C° 0 mm 2 mps 764 mmHg 64%
    13:00 +18°C° 0 mm 2 mps 764 mmHg 67%
    14:00 +18°C° 0 mm 2 mps 763 mmHg 69%
    15:00 +18°C° 0 mm 2 mps 763 mmHg 72%
    16:00 +17°C° 0 mm 2 mps 763 mmHg 76%
    17:00 +18°C° 0 mm 1 mps 763 mmHg 81%
    18:00 +16°C° 0 mm 1 mps 763 mmHg 85%
    19:00 +16°C° 0 mm 1 mps 764 mmHg 86%
    20:00 +16°C° 0 mm 1 mps 764 mmHg 86%
    21:00 +14°C° 0 mm 0 mps 764 mmHg 87%
    22:00 +14°C° 0 mm 0 mps 764 mmHg 87%
    23:00 +13°C° 0 mm 0 mps 764 mmHg 88%

    Day after tomorrow, 12 December, Wednesday

    Time Temperature Precipitation Wind Pressure Humidity
    00:00 +13°C° 0 mm 0 mps 764 mmHg 89%
    01:00 +14°C° 0 mm 1 mps 764 mmHg 89%
    02:00 +14°C° 0 mm 1 mps 764 mmHg 89%
    03:00 +13°C° 0 mm 1 mps 764 mmHg 89%
    04:00 +13°C° 0 mm 1 mps 764 mmHg 90%
    05:00 +13°C° 0 mm 1 mps 764 mmHg 90%
    06:00 +13°C° 0 mm 1 mps 764 mmHg 90%
    07:00 +13°C° 0 mm 1 mps 764 mmHg 88%
    08:00 +13°C° 0 mm 0 mps 764 mmHg 86%
    09:00 +13°C° 0 mm 0 mps 764 mmHg 84%
    10:00 +16°C° 0 mm 1 mps 764 mmHg 78%
    11:00 +18°C° 0 mm 1 mps 764 mmHg 73%
    12:00 +19°C° 0 mm 1 mps 763 mmHg 67%
    13:00 +19°C° 0 mm 2 mps 763 mmHg 65%
    14:00 +19°C° 0 mm 2 mps 762 mmHg 63%
    15:00 +19°C° 0 mm 3 mps 762 mmHg 61%
    16:00 +18°C° 0 mm 3 mps 762 mmHg 67%
    17:00 +17°C° 0 mm 2 mps 762 mmHg 73%
    18:00 +15°C° 0 mm 2 mps 762 mmHg 80%
    19:00 +15°C° 0 mm 2 mps 762 mmHg 82%
    20:00 +15°C° 0 mm 2 mps 762 mmHg 85%
    21:00 +14°C° 0 mm 2 mps 762 mmHg 88%
    22:00 +14°C° 0 mm 2 mps 762 mmHg 88%
    23:00 +14°C° 0 mm 2 mps 762 mmHg 88%

    13 December, Thursday

    Time Temperature Precipitation Wind Pressure Humidity
    00:00 +14°C° 0 mm 2 mps 761 mmHg 89%
    01:00 +14°C° 0.2 mm 2 mps 761 mmHg 88%
    02:00 +14°C° 0.2 mm 2 mps 760 mmHg 88%
    03:00 +14°C° 0.2 mm 2 mps 760 mmHg 87%
    04:00 +14°C° 0.8 mm 3 mps 759 mmHg 88%
    05:00 +14°C° 0.8 mm 4 mps 758 mmHg 90%
    06:00 +14°C° 0.8 mm 5 mps 757 mmHg 91%
    07:00 +14°C° 1.5 mm 6 mps 757 mmHg 87%
    08:00 +14°C° 1.5 mm 7 mps 757 mmHg 83%
    09:00 +15°C° 1.5 mm 9 mps 757 mmHg 79%
    10:00 +13°C° 0 mm 8 mps 758 mmHg 71%
    11:00 +13°C° 0 mm 8 mps 758 mmHg 62%
    12:00 +13°C° 0 mm 8 mps 758 mmHg 53%
    13:00 +13°C° 0 mm 8 mps 759 mmHg 51%
    14:00 +13°C° 0 mm 8 mps 759 mmHg 49%
    15:00 +13°C° 0 mm 8 mps 759 mmHg 48%
    16:00 +12°C° 0 mm 7 mps 759 mmHg 51%
    17:00 +11°C° 0 mm 6 mps 760 mmHg 55%
    18:00 +10°C° 0 mm 5 mps 761 mmHg 59%
    19:00 +10°C° 0 mm 5 mps 761 mmHg 61%
    20:00 +9°C° 0 mm 5 mps 762 mmHg 64%
    21:00 +10°C° 0 mm 4 mps 762 mmHg 66%
    22:00 +10°C° 0 mm 4 mps 763 mmHg 69%
    23:00 +8°C° 0 mm 4 mps 763 mmHg 71%

    14 December, Friday

    Time Temperature Precipitation Wind Pressure Humidity
    00:00 +8°C° 0 mm 4 mps 763 mmHg 74%
    01:00 +7°C° 0 mm 4 mps 763 mmHg 76%
    02:00 +7°C° 0 mm 4 mps 763 mmHg 78%
    03:00 +7°C° 0 mm 4 mps 763 mmHg 80%
    04:00 +8°C° 0 mm 3 mps 763 mmHg 81%
    05:00 +7°C° 0 mm 3 mps 764 mmHg 81%
    06:00 +7°C° 0 mm 3 mps 764 mmHg 82%
    07:00 +8°C° 0 mm 3 mps 764 mmHg 80%
    08:00 +8°C° 0 mm 3 mps 765 mmHg 77%
    09:00 +9°C° 0 mm 3 mps 766 mmHg 75%
    10:00 +10°C° 0 mm 3 mps 766 mmHg 67%
    11:00 +13°C° 0 mm 2 mps 766 mmHg 60%
    12:00 +14°C° 0 mm 2 mps 766 mmHg 52%
    13:00 +15°C° 0 mm 2 mps 766 mmHg 50%
    14:00 +15°C° 0 mm 2 mps 766 mmHg 49%
    15:00 +16°C° 0 mm 2 mps 766 mmHg 47%
    16:00 +14°C° 0 mm 2 mps 766 mmHg 52%
    17:00 +13°C° 0 mm 2 mps 766 mmHg 57%
    18:00 +12°C° 0 mm 1 mps 767 mmHg 62%
    19:00 +12°C° 0 mm 1 mps 767 mmHg 63%
    20:00 +11°C° 0 mm 1 mps 767 mmHg 65%
    21:00 +11°C° 0 mm 1 mps 768 mmHg 66%
    22:00 +10°C° 0 mm 1 mps 768 mmHg 67%
    23:00 +10°C° 0 mm 1 mps 768 mmHg 67%

    15 December, Saturday

    Time Temperature Precipitation Wind Pressure Humidity
    00:00 +10°C° 0 mm 1 mps 768 mmHg 68%
    01:00 +10°C° 0 mm 1 mps 768 mmHg 68%
    02:00 +10°C° 0 mm 1 mps 768 mmHg 69%
    03:00 +8°C° 0 mm 2 mps 768 mmHg 70%
    04:00 +9°C° 0 mm 1 mps 768 mmHg 70%
    05:00 +9°C° 0 mm 1 mps 768 mmHg 71%
    06:00 +9°C° 0 mm 1 mps 768 mmHg 72%
    07:00 +9°C° 0 mm 1 mps 768 mmHg 70%
    08:00 +10°C° 0 mm 1 mps 768 mmHg 68%
    09:00 +11°C° 0 mm 1 mps 768 mmHg 66%
    10:00 +12°C° 0 mm 1 mps 768 mmHg 60%
    11:00 +14°C° 0 mm 1 mps 768 mmHg 54%
    12:00 +16°C° 0 mm 1 mps 768 mmHg 49%
    13:00 +16°C° 0 mm 1 mps 768 mmHg 47%
    14:00 +18°C° 0 mm 1 mps 767 mmHg 46%
    15:00 +18°C° 0 mm 1 mps 767 mmHg 45%
    16:00 +16°C° 0 mm 1 mps 767 mmHg 50%
    17:00 +15°C° 0 mm 1 mps 767 mmHg 55%
    18:00 +12°C° 0 mm 0 mps 767 mmHg 60%
    19:00 +13°C° 0 mm 1 mps 768 mmHg 61%
    20:00 +13°C° 0 mm 1 mps 768 mmHg 62%
    21:00 +13°C° 0 mm 1 mps 768 mmHg 63%
    22:00 +12°C° 0 mm 1 mps 768 mmHg 65%
    23:00 +12°C° 0 mm 1 mps 768 mmHg 66%
    Show more